TimeEDT,TemperatureF,Dew PointF,Humidity,Sea Level PressureIn,VisibilityMPH,Wind Direction,Wind SpeedMPH,Gust SpeedMPH,PrecipitationIn,Events,Conditions,WindDirDegrees,DateUTC
12:04 AM,57.2,55.4,94,29.89,7.0,South,4.6,-,N/A,,Mostly Cloudy,180,2012-10-03 04:04:00
12:13 AM,57.2,55.4,94,29.89,7.0,Calm,Calm,-,N/A,,Overcast,0,2012-10-03 04:13:00
12:50 AM,57.2,55.4,94,29.89,8.0,SSE,3.5,-,N/A,,Overcast,160,2012-10-03 04:50:00
12:53 AM,57.0,55.0,93,29.89,8.0,SSE,4.6,-,N/A,,Overcast,160,2012-10-03 04:53:00
1:29 AM,57.2,55.4,94,29.89,9.0,SSE,4.6,-,N/A,,Overcast,160,2012-10-03 05:29:00
1:38 AM,57.2,55.4,94,29.89,9.0,South,3.5,-,N/A,,Overcast,170,2012-10-03 05:38:00
1:53 AM,57.0,55.0,93,29.89,8.0,SSE,4.6,-,N/A,,Overcast,150,2012-10-03 05:53:00
2:16 AM,57.2,55.4,94,29.90,8.0,SSE,4.6,-,N/A,,Overcast,150,2012-10-03 06:16:00
2:34 AM,57.2,55.4,94,29.90,7.0,SSE,3.5,-,N/A,,Overcast,160,2012-10-03 06:34:00
2:53 AM,57.0,55.0,93,29.91,7.0,SSE,4.6,-,N/A,,Overcast,160,2012-10-03 06:53:00
3:53 AM,57.0,54.0,89,29.91,9.0,South,4.6,-,N/A,,Overcast,180,2012-10-03 07:53:00
4:08 AM,57.2,53.6,88,29.92,10.0,South,4.6,-,N/A,,Overcast,190,2012-10-03 08:08:00
4:27 AM,55.4,53.6,94,29.92,10.0,South,6.9,-,N/A,,Overcast,180,2012-10-03 08:27:00
4:35 AM,55.4,53.6,94,29.93,10.0,South,3.5,-,N/A,,Overcast,180,2012-10-03 08:35:00
4:53 AM,55.9,54.0,93,29.93,8.0,South,5.8,-,N/A,,Overcast,180,2012-10-03 08:53:00
5:15 AM,55.4,53.6,94,29.93,7.0,South,5.8,-,N/A,,Overcast,190,2012-10-03 09:15:00
5:53 AM,55.9,54.0,93,29.94,8.0,South,3.5,-,N/A,,Overcast,180,2012-10-03 09:53:00
6:12 AM,55.4,53.6,94,29.95,10.0,South,5.8,-,N/A,,Overcast,180,2012-10-03 10:12:00
6:33 AM,55.4,53.6,94,29.96,9.0,South,5.8,-,N/A,,Overcast,190,2012-10-03 10:33:00
6:41 AM,55.4,53.6,94,29.96,9.0,South,5.8,-,N/A,,Overcast,180,2012-10-03 10:41:00
6:53 AM,55.0,53.1,93,29.96,6.0,South,6.9,-,N/A,,Overcast,190,2012-10-03 10:53:00
7:41 AM,55.4,53.6,94,29.98,5.0,Variable,4.6,-,N/A,,Overcast,0,2012-10-03 11:41:00
7:53 AM,55.0,54.0,96,29.98,5.0,South,8.1,-,N/A,,Overcast,190,2012-10-03 11:53:00
8:53 AM,55.0,54.0,96,30.00,7.0,South,5.8,-,N/A,,Overcast,190,2012-10-03 12:53:00
9:53 AM,55.0,54.0,96,30.01,2.0,South,6.9,-,N/A,,Overcast,190,2012-10-03 13:53:00
10:00 AM,55.4,53.6,94,30.02,1.8,Variable,5.8,-,N/A,,Overcast,0,2012-10-03 14:00:00
10:10 AM,55.4,53.6,94,30.02,1.8,South,6.9,-,N/A,,Overcast,180,2012-10-03 14:10:00
10:19 AM,55.4,53.6,94,30.02,2.0,SSW,8.1,-,N/A,,Overcast,200,2012-10-03 14:19:00
10:49 AM,55.4,55.4,100,30.03,2.5,Variable,5.8,-,N/A,,Overcast,0,2012-10-03 14:49:00
10:53 AM,55.9,55.0,97,30.03,4.0,SSW,8.1,-,N/A,,Overcast,210,2012-10-03 14:53:00
11:23 AM,57.2,55.4,94,30.03,7.0,SSW,9.2,-,N/A,,Overcast,210,2012-10-03 15:23:00
11:50 AM,59.0,53.6,82,30.03,10.0,SSW,8.1,-,N/A,,Mostly Cloudy,200,2012-10-03 15:50:00
11:53 AM,60.1,54.0,80,30.03,10.0,SSW,8.1,-,N/A,,Mostly Cloudy,210,2012-10-03 15:53:00
12:53 PM,62.1,54.0,75,30.04,10.0,SSW,12.7,18.4,N/A,,Overcast,210,2012-10-03 16:53:00
1:12 PM,62.6,53.6,72,30.03,10.0,South,11.5,18.4,N/A,,Overcast,190,2012-10-03 17:12:00
1:53 PM,63.0,53.1,70,30.03,10.0,SSW,12.7,20.7,N/A,,Overcast,200,2012-10-03 17:53:00
2:53 PM,64.9,52.0,63,30.01,10.0,SW,10.4,17.3,N/A,,Overcast,220,2012-10-03 18:53:00
3:53 PM,66.9,52.0,59,30.01,10.0,SSW,9.2,-,N/A,,Overcast,200,2012-10-03 19:53:00
5:53 PM,68.0,50.0,52,30.02,10.0,South,8.1,-,N/A,,Partly Cloudy,190,2012-10-03 21:53:00
6:53 PM,66.9,51.1,57,30.03,10.0,South,5.8,-,N/A,,Clear,190,2012-10-03 22:53:00
7:53 PM,63.0,52.0,67,30.04,10.0,Calm,Calm,-,N/A,,Clear,0,2012-10-03 23:53:00
8:53 PM,63.0,52.0,67,30.05,10.0,Calm,Calm,-,N/A,,Mostly Cloudy,0,2012-10-04 00:53:00
9:53 PM,61.0,52.0,72,30.08,10.0,South,3.5,-,N/A,,Clear,180,2012-10-04 01:53:00
10:53 PM,60.1,51.1,72,30.08,10.0,Calm,Calm,-,N/A,,Clear,0,2012-10-04 02:53:00
11:53 PM,59.0,51.1,75,30.09,10.0,South,3.5,-,N/A,,Clear,180,2012-10-04 03:53:00